Weather History for Morrisville, VT

Change the Weather History Date:

Saturday, January 26, 2013

  Actual Average Record
Temperature  
Mean Temperature 6 °F 15 °F  
Max Temperature 13 °F 27 °F 39 °F (2002)
Min Temperature -1 °F 4 °F -26 °F (2004)
Degree Days  
Heating Degree Days 59 50  
Month to date heating degree days 1258 1278  
Since 1 July heating degree days 4102 4416  
Cooling Degree Days 0 0  
Month to date cooling degree days 0 0  
Year to date cooling degree days 0 0  
Moisture  
Dew Point -2 °F    
Average Humidity 65    
Maximum Humidity 83    
Minimum Humidity 46    
Precipitation  
Precipitation T in 0.07 in 0.20 in (1949)
Month to date precipitation 0.49 2.16  
Year to date precipitation 0.49 2.16  
Sea Level Pressure  
Sea Level Pressure 30.20 in    
Wind  
Wind Speed 6 mph (NNW)    
Max Wind Speed 15 mph    
Max Gust Speed 21 mph    
Visibility 9 miles    
Events Snow    
T = Trace of Precipitation, MM = Missing Value Source: NWS Daily Summary

Daily Weather History Graph

Daily Weather History Graph

Search for Another Location

Airport:

Trip Planner

Search our weather history database for the weather conditions in past years. The results will help you decide how hot, cold, wet, or windy it might be!

Date:

Astronomy

Jan. 26, 2013 Rise Set
Actual Time 7:15 AM EST 4:51 PM EST
Civil Twilight 6:43 AM EST 5:22 PM EST
Nautical Twilight 6:08 AM EST 5:58 PM EST
Astronomical Twilight 5:34 AM EST 6:32 PM EST
Moon 4:45 PM EST (1/26) 6:30 AM EST (1/26)
Length of Visible Light 10h 39m
Length of Day
9h 36m
Full, 100% of the Moon is Illuminated
Jan 26
Full
Jan 26
Full
Feb 3
Last Quarter
Feb 10
New
Feb 17
First Quarter

Hourly Weather History & Observations

Time (EST) Temp. Windchill Dew Point Humidity Pressure Visibility Wind Dir Wind Speed Gust Speed Precip Events Conditions
12:54 AM 7.0 °F - -0.9 °F 70% 30.12 in 6.0 mi Calm Calm - N/A   Haze
1:54 AM 6.1 °F -0.9 °F 1.0 °F 80% 30.12 in 4.0 mi NNE 3.5 mph - N/A   Haze
2:54 AM 6.1 °F -2.8 °F -0.0 °F 76% 30.12 in 10.0 mi NNW 4.6 mph - N/A   Overcast
3:54 AM 5.0 °F - -0.9 °F 76% 30.12 in 10.0 mi Calm Calm - N/A   Overcast
4:54 AM 3.9 °F -8.2 °F -2.9 °F 73% 30.12 in 10.0 mi North 6.9 mph - N/A   Clear
5:54 AM 3.0 °F -10.5 °F -4.0 °F 73% 30.14 in 10.0 mi North 8.1 mph - N/A   Clear
6:54 AM 1.0 °F -8.7 °F -6.0 °F 72% 30.15 in 10.0 mi NNE 4.6 mph - N/A   Clear
7:54 AM -0.9 °F - -6.0 °F 79% 30.17 in 10.0 mi Calm Calm - N/A   Clear
8:54 AM 3.0 °F - -4.0 °F 73% 30.18 in 10.0 mi Calm Calm - N/A   Clear
9:54 AM 6.1 °F -4.3 °F -5.1 °F 60% 30.19 in 10.0 mi North 5.8 mph - N/A   Clear
10:54 AM 8.1 °F -4.3 °F -6.0 °F 53% 30.19 in 10.0 mi North 8.1 mph - N/A   Clear
11:54 AM 9.0 °F -6.6 °F -7.1 °F 48% 30.17 in 10.0 mi NW 12.7 mph - N/A   Clear
12:54 PM 10.0 °F -5.2 °F -6.0 °F 48% 30.17 in 10.0 mi North 12.7 mph - N/A   Clear
1:54 PM 12.0 °F 1.5 °F -6.0 °F 44% 30.17 in 10.0 mi North 6.9 mph - N/A   Clear
2:54 PM 10.0 °F -4.5 °F -7.1 °F 46% 30.20 in 10.0 mi NW 11.5 mph - N/A   Clear
3:54 PM 10.0 °F 0.4 °F -7.1 °F 46% 30.22 in 10.0 mi Variable 5.8 mph - N/A   Scattered Clouds
4:54 PM 9.0 °F -2.2 °F -2.9 °F 59% 30.23 in 10.0 mi NW 6.9 mph - N/A   Mostly Cloudy
5:54 PM 9.0 °F - -0.9 °F 64% 30.25 in 10.0 mi Calm Calm - N/A   Overcast
6:54 PM 8.1 °F 1.4 °F -0.9 °F 67% 30.25 in 10.0 mi WNW 3.5 mph - N/A   Overcast
7:54 PM 10.0 °F -1.9 °F 1.0 °F 67% 30.26 in 6.0 mi NW 8.1 mph 20.7 mph 0.00 in   Overcast
8:01 PM 10.4 °F 0.8 °F 1.4 °F 67% 30.20 in 5.0 mi Variable 5.8 mph 17.3 mph 0.00 in Snow Light Snow
8:54 PM 10.0 °F - 1.9 °F 70% 30.27 in 6.0 mi Calm Calm - 0.00 in   Haze
9:02 PM 10.4 °F - 1.4 °F 67% 30.21 in 10.0 mi Calm Calm - N/A   Overcast
9:54 PM 10.9 °F 0.2 °F 1.0 °F 64% 30.28 in 10.0 mi WNW 6.9 mph 16.1 mph N/A   Overcast
10:54 PM 10.9 °F -0.8 °F 3.0 °F 70% 30.29 in 5.0 mi NW 8.1 mph - N/A   Haze
11:54 PM 10.9 °F 0.2 °F 1.9 °F 67% 30.30 in 10.0 mi NNW 6.9 mph - N/A   Mostly Cloudy